Location: Unspecified
(0.0000°N, 0.0000°E)
Time: 01:47:51
(UTC+00:00)

Vanguard 2 - Pass Details

Date: 21 November 2019
Orbit: 553 x 2938 km, 32.9° (Epoch: 10 December)

Event Time Altitude Azimuth Distance (km) Brightness Sun altitude
Rises 17:42:37 0° 267° (W) 2,989 12.4 0.8°
Reaches altitude 10° 17:45:18 10° 248° (WSW) 2,280 12.4 0.1°
Maximum altitude 17:49:05 19° 202° (SSW) 2,040 10.4 -0.8°
Drops below altitude 10° 17:54:05 10° 158° (SSE) 3,142 10.7 -1.9°
Sets 17:58:43 0° 143° (SE) 4,607 11.3 -3.0°
